SHT2V EGLL-EGCC

Flight info

Callsign SHT2V
Flight time 0h 31m
Altitude 18000
Route UMLAT T418 WELIN T420 ELVOS
Aircraft A320/M-SDE3FGHIRWY/LB1

Departure

Time 2026-05-03 22:11
Airport London Heathrow Airport (EGLL)

Arrival

Time 2026-05-03 22:42
Airport Manchester Airport (EGCC)
Time Latitude Longitude Altitude Speed Heading
2026-05-03 21:45 51.47395 -0.48760 60 ft 0 kts 179°
2026-05-03 21:53 51.47418 -0.48760 91 ft 4 kts 179°
2026-05-03 21:53 51.47440 -0.48760 89 ft 3 kts 179°
2026-05-03 21:53 51.47466 -0.48764 88 ft 4 kts 159°
2026-05-03 21:54 51.47485 -0.48786 90 ft 4 kts 98°
2026-05-03 21:54 51.47486 -0.48804 89 ft 0 kts 89°
2026-05-03 21:58 51.47486 -0.48782 91 ft 4 kts 89°
2026-05-03 21:58 51.47486 -0.48742 90 ft 0 kts 89°
2026-05-03 21:59 51.47486 -0.48720 89 ft 7 kts 89°
2026-05-03 21:59 51.47487 -0.48575 88 ft 18 kts 89°
2026-05-03 21:59 51.47487 -0.48313 89 ft 28 kts 90°
2026-05-03 21:59 51.47488 -0.47980 88 ft 31 kts 90°
2026-05-03 22:00 51.47489 -0.47610 87 ft 34 kts 89°
2026-05-03 22:00 51.47491 -0.47223 87 ft 32 kts 89°
2026-05-03 22:00 51.47493 -0.46879 87 ft 24 kts 89°
2026-05-03 22:00 51.47515 -0.46690 87 ft 14 kts 89°
2026-05-03 22:01 51.47515 -0.46511 87 ft 18 kts 90°
2026-05-03 22:01 51.47515 -0.46292 87 ft 21 kts 89°
2026-05-03 22:01 51.47517 -0.46037 87 ft 25 kts 89°
2026-05-03 22:01 51.47511 -0.45763 88 ft 23 kts 101°
2026-05-03 22:02 51.47507 -0.45488 88 ft 26 kts 90°
2026-05-03 22:02 51.47509 -0.45185 87 ft 28 kts 90°
2026-05-03 22:02 51.47510 -0.44872 88 ft 29 kts 90°
2026-05-03 22:02 51.47499 -0.44612 87 ft 14 kts 110°
2026-05-03 22:03 51.47502 -0.44439 87 ft 19 kts 89°
2026-05-03 22:03 51.47503 -0.44206 87 ft 22 kts 90°
2026-05-03 22:03 51.47505 -0.43941 90 ft 22 kts 89°
2026-05-03 22:03 51.47481 -0.43769 90 ft 15 kts 148°
2026-05-03 22:04 51.47366 -0.43757 90 ft 18 kts 180°
2026-05-03 22:04 51.47228 -0.43757 89 ft 21 kts 180°
2026-05-03 22:04 51.47092 -0.43755 87 ft 16 kts 180°
2026-05-03 22:04 51.47041 -0.43756 87 ft 0 kts 180°
2026-05-03 22:05 51.47028 -0.43756 90 ft 4 kts 180°
2026-05-03 22:05 51.46992 -0.43755 87 ft 7 kts 180°
2026-05-03 22:05 51.46933 -0.43753 87 ft 10 kts 178°
2026-05-03 22:06 51.46849 -0.43754 87 ft 14 kts 190°
2026-05-03 22:06 51.46755 -0.43821 88 ft 16 kts 205°
2026-05-03 22:06 51.46656 -0.43832 87 ft 6 kts 180°
2026-05-03 22:06 51.46612 -0.43832 86 ft 4 kts 180°
2026-05-03 22:07 51.46611 -0.43832 86 ft 0 kts 180°
2026-05-03 22:08 51.46607 -0.43832 86 ft 2 kts 180°
2026-05-03 22:08 51.46574 -0.43831 86 ft 7 kts 180°
2026-05-03 22:09 51.46510 -0.43831 85 ft 7 kts 180°
2026-05-03 22:09 51.46494 -0.43860 87 ft 4 kts 255°
2026-05-03 22:09 51.46493 -0.43906 86 ft 0 kts 270°
2026-05-03 22:10 51.46493 -0.43908 86 ft 4 kts 270°
2026-05-03 22:10 51.46492 -0.44379 87 ft 81 kts 270°
2026-05-03 22:10 51.46488 -0.45606 86 ft 140 kts 269°
2026-05-03 22:10 51.46493 -0.47342 458 ft 158 kts 269°
2026-05-03 22:11 51.46483 -0.49099 1253 ft 158 kts 269°
2026-05-03 22:11 51.46601 -0.50946 1663 ft 180 kts 288°
2026-05-03 22:11 51.47188 -0.52870 2035 ft 205 kts 297°
2026-05-03 22:11 51.47879 -0.55019 2540 ft 230 kts 297°
2026-05-03 22:12 51.48639 -0.57423 3083 ft 253 kts 296°
2026-05-03 22:12 51.49455 -0.60001 3985 ft 262 kts 296°
2026-05-03 22:12 51.50362 -0.62574 5018 ft 268 kts 303°
2026-05-03 22:12 51.51475 -0.65030 5714 ft 275 kts 306°
2026-05-03 22:13 51.52639 -0.67481 5934 ft 276 kts 306°
2026-05-03 22:13 51.53804 -0.69918 6002 ft 276 kts 306°
2026-05-03 22:13 51.54972 -0.72362 5997 ft 275 kts 306°
2026-05-03 22:13 51.56140 -0.74807 5999 ft 275 kts 306°
2026-05-03 22:14 51.57306 -0.77248 5996 ft 275 kts 306°
2026-05-03 22:14 51.58456 -0.79656 6000 ft 276 kts 306°
2026-05-03 22:14 51.59635 -0.82125 6689 ft 279 kts 306°
2026-05-03 22:14 51.60828 -0.84602 7735 ft 281 kts 306°
2026-05-03 22:15 51.62040 -0.87099 8727 ft 285 kts 306°
2026-05-03 22:15 51.63276 -0.89629 9708 ft 289 kts 306°
2026-05-03 22:15 51.64546 -0.92213 10327 ft 305 kts 306°
2026-05-03 22:15 51.65917 -0.95007 10667 ft 328 kts 306°
2026-05-03 22:16 51.66867 -0.96946 11036 ft 336 kts 306°
2026-05-03 22:16 51.68330 -0.99925 11779 ft 342 kts 306°
2026-05-03 22:16 51.69818 -1.02949 12573 ft 347 kts 306°
2026-05-03 22:16 51.71330 -1.06010 13392 ft 351 kts 306°
2026-05-03 22:17 51.72866 -1.09109 13814 ft 354 kts 306°
2026-05-03 22:17 51.74563 -1.12004 14158 ft 361 kts 320°
2026-05-03 22:17 51.76778 -1.13976 14908 ft 369 kts 339°
2026-05-03 22:17 51.79311 -1.14786 15615 ft 374 kts 352°
2026-05-03 22:18 51.81907 -1.15263 16318 ft 378 kts 352°
2026-05-03 22:18 51.84544 -1.15709 17015 ft 382 kts 352°
2026-05-03 22:18 51.87193 -1.16145 17673 ft 387 kts 352°
2026-05-03 22:18 51.89853 -1.16583 17899 ft 388 kts 352°
2026-05-03 22:19 51.92574 -1.17039 17945 ft 399 kts 352°
2026-05-03 22:19 51.95345 -1.17512 17944 ft 402 kts 352°
2026-05-03 22:19 51.98129 -1.17996 17943 ft 403 kts 352°
2026-05-03 22:19 52.00920 -1.18486 17941 ft 403 kts 352°
2026-05-03 22:20 52.03709 -1.18977 17944 ft 403 kts 352°
2026-05-03 22:20 52.06495 -1.19464 17944 ft 403 kts 352°
2026-05-03 22:20 52.09284 -1.19949 17943 ft 403 kts 352°
2026-05-03 22:20 52.12072 -1.20433 17946 ft 403 kts 352°
2026-05-03 22:21 52.14864 -1.20919 17948 ft 403 kts 352°
2026-05-03 22:21 52.17653 -1.21405 17950 ft 403 kts 352°
2026-05-03 22:21 52.20438 -1.21890 17953 ft 403 kts 352°
2026-05-03 22:21 52.23234 -1.22379 17956 ft 404 kts 352°
2026-05-03 22:22 52.26024 -1.22870 17957 ft 404 kts 352°
2026-05-03 22:22 52.28820 -1.23360 17959 ft 404 kts 352°
2026-05-03 22:22 52.31609 -1.23852 17955 ft 404 kts 352°
2026-05-03 22:22 52.34374 -1.24340 17966 ft 405 kts 352°
2026-05-03 22:23 52.37174 -1.24837 17965 ft 405 kts 352°
2026-05-03 22:23 52.39976 -1.25335 17960 ft 405 kts 352°
2026-05-03 22:23 52.42769 -1.25831 17952 ft 405 kts 352°
2026-05-03 22:23 52.45580 -1.26327 17952 ft 405 kts 352°
2026-05-03 22:24 52.48377 -1.26822 17946 ft 404 kts 352°
2026-05-03 22:24 52.51168 -1.27316 17944 ft 404 kts 352°
2026-05-03 22:24 52.53951 -1.27809 17939 ft 404 kts 352°
2026-05-03 22:24 52.56758 -1.28308 17935 ft 404 kts 352°
2026-05-03 22:25 52.59560 -1.28811 17935 ft 405 kts 352°
2026-05-03 22:25 52.62326 -1.29310 17935 ft 405 kts 352°
2026-05-03 22:25 52.65122 -1.29814 17934 ft 405 kts 352°
2026-05-03 22:25 52.67912 -1.30429 17935 ft 404 kts 346°
2026-05-03 22:26 52.70598 -1.31731 17934 ft 402 kts 336°
2026-05-03 22:26 52.73087 -1.33780 17918 ft 397 kts 326°
2026-05-03 22:26 52.75400 -1.36135 17697 ft 385 kts 326°
2026-05-03 22:26 52.77645 -1.38425 17433 ft 373 kts 326°
2026-05-03 22:27 52.79801 -1.40622 17165 ft 367 kts 326°
2026-05-03 22:27 52.81994 -1.42860 16895 ft 364 kts 326°
2026-05-03 22:27 52.84113 -1.45029 16657 ft 363 kts 326°
2026-05-03 22:27 52.86255 -1.47229 16392 ft 361 kts 326°
2026-05-03 22:28 52.88380 -1.49416 16129 ft 359 kts 326°
2026-05-03 22:28 52.90502 -1.51603 15873 ft 358 kts 326°
2026-05-03 22:28 52.92607 -1.53774 15624 ft 356 kts 326°
2026-05-03 22:28 52.94699 -1.55927 15252 ft 351 kts 326°
2026-05-03 22:29 52.96771 -1.58063 14746 ft 350 kts 326°
2026-05-03 22:29 52.98829 -1.60192 14240 ft 348 kts 326°
2026-05-03 22:29 53.00881 -1.62319 13721 ft 348 kts 326°
2026-05-03 22:29 53.02933 -1.64444 13180 ft 346 kts 326°
2026-05-03 22:30 53.04931 -1.66634 12680 ft 342 kts 320°
2026-05-03 22:30 53.06624 -1.69349 12236 ft 335 kts 308°
2026-05-03 22:30 53.08099 -1.72252 12108 ft 322 kts 308°
2026-05-03 22:30 53.09535 -1.75039 11934 ft 312 kts 308°
2026-05-03 22:31 53.10929 -1.77728 11759 ft 303 kts 308°
2026-05-03 22:31 53.12283 -1.80335 11454 ft 300 kts 308°
2026-05-03 22:31 53.13627 -1.82937 11122 ft 298 kts 308°
2026-05-03 22:31 53.14985 -1.85578 10777 ft 297 kts 308°
2026-05-03 22:32 53.16326 -1.88188 10432 ft 296 kts 308°
2026-05-03 22:32 53.17663 -1.90792 10108 ft 295 kts 308°
2026-05-03 22:32 53.18992 -1.93385 9762 ft 294 kts 308°
2026-05-03 22:32 53.20312 -1.95970 9407 ft 292 kts 308°
2026-05-03 22:33 53.21619 -1.98547 9055 ft 291 kts 308°
2026-05-03 22:33 53.22917 -2.01120 8708 ft 290 kts 308°
2026-05-03 22:33 53.24183 -2.03728 8365 ft 287 kts 302°
2026-05-03 22:33 53.24888 -2.06783 8030 ft 281 kts 275°
2026-05-03 22:34 53.24831 -2.09965 7786 ft 274 kts 262°
2026-05-03 22:34 53.24606 -2.13019 7647 ft 256 kts 261°
2026-05-03 22:34 53.24379 -2.15904 7295 ft 247 kts 261°
2026-05-03 22:34 53.24150 -2.18729 6809 ft 245 kts 260°
2026-05-03 22:35 53.23916 -2.21523 6303 ft 243 kts 260°
2026-05-03 22:35 53.23677 -2.24322 5754 ft 242 kts 260°
2026-05-03 22:35 53.23430 -2.27106 5237 ft 244 kts 261°
2026-05-03 22:35 53.23173 -2.29887 4958 ft 242 kts 260°
2026-05-03 22:36 53.22912 -2.32654 4657 ft 241 kts 261°
2026-05-03 22:36 53.22642 -2.35410 4336 ft 240 kts 261°
2026-05-03 22:36 53.22365 -2.38143 3937 ft 238 kts 261°
2026-05-03 22:36 53.22079 -2.40869 3478 ft 238 kts 261°
2026-05-03 22:37 53.21826 -2.43596 3051 ft 237 kts 271°
2026-05-03 22:37 53.22224 -2.46097 2984 ft 215 kts 306°
2026-05-03 22:37 53.23218 -2.47747 2982 ft 195 kts 338°
2026-05-03 22:37 53.24493 -2.48144 3005 ft 184 kts 11°
2026-05-03 22:38 53.25647 -2.47371 3000 ft 179 kts 40°
2026-05-03 22:38 53.26476 -2.45850 2873 ft 177 kts 52°
2026-05-03 22:38 53.27248 -2.44250 2681 ft 176 kts 52°
2026-05-03 22:38 53.28010 -2.42678 2434 ft 172 kts 51°
2026-05-03 22:39 53.28735 -2.41187 2203 ft 160 kts 51°
2026-05-03 22:39 53.29427 -2.39764 1994 ft 155 kts 51°
2026-05-03 22:39 53.30102 -2.38373 1789 ft 154 kts 50°
2026-05-03 22:39 53.30771 -2.36996 1591 ft 153 kts 51°
2026-05-03 22:40 53.31439 -2.35620 1372 ft 147 kts 50°
2026-05-03 22:40 53.32045 -2.34371 1151 ft 132 kts 51°
2026-05-03 22:40 53.32610 -2.33211 937 ft 127 kts 50°
2026-05-03 22:40 53.33157 -2.32094 786 ft 125 kts 50°
2026-05-03 22:41 53.33703 -2.30979 597 ft 123 kts 51°
2026-05-03 22:41 53.34241 -2.29858 452 ft 124 kts 51°
2026-05-03 22:41 53.34779 -2.28736 283 ft 123 kts 52°
2026-05-03 22:41 53.35283 -2.27684 233 ft 99 kts 51°
2026-05-03 22:42 53.35600 -2.27026 241 ft 42 kts 51°
2026-05-03 22:42 53.35760 -2.26698 246 ft 24 kts 49°
2026-05-03 22:42 53.35847 -2.26691 240 ft 16 kts 355°
2026-05-03 22:42 53.35916 -2.26782 234 ft 11 kts 264°
2026-05-03 22:43 53.35873 -2.26896 234 ft 13 kts 231°
2026-05-03 22:43 53.35820 -2.27029 233 ft 15 kts 242°
2026-05-03 22:43 53.35749 -2.27183 233 ft 18 kts 229°
2026-05-03 22:43 53.35666 -2.27357 233 ft 14 kts 231°
2026-05-03 22:44 53.35619 -2.27470 233 ft 10 kts 255°
2026-05-03 22:44 53.35661 -2.27579 233 ft 14 kts 321°
2026-05-03 22:44 53.35754 -2.27655 234 ft 14 kts 342°
2026-05-03 22:44 53.35861 -2.27650 233 ft 17 kts
2026-05-03 22:45 53.35967 -2.27631 233 ft 17 kts
2026-05-03 22:45 53.36061 -2.27624 233 ft 11 kts 336°
2026-05-03 22:45 53.36092 -2.27761 235 ft 15 kts 285°
2026-05-03 22:45 53.36125 -2.27940 234 ft 18 kts 301°
2026-05-03 22:46 53.36219 -2.28105 233 ft 21 kts 315°
2026-05-03 22:46 53.36331 -2.28293 233 ft 20 kts 315°
2026-05-03 22:46 53.36417 -2.28457 233 ft 18 kts 292°
2026-05-03 22:46 53.36505 -2.28621 233 ft 21 kts 314°
2026-05-03 22:47 53.36582 -2.28775 235 ft 16 kts 294°
2026-05-03 22:47 53.36645 -2.28892 233 ft 13 kts 343°
2026-05-03 22:47 53.36721 -2.28998 233 ft 15 kts 314°
2026-05-03 22:47 53.36801 -2.29025 233 ft 14 kts 20°
2026-05-03 22:48 53.36879 -2.28921 233 ft 11 kts 45°
2026-05-03 22:48 53.36933 -2.28832 233 ft 8 kts 44°
2026-05-03 22:48 53.36974 -2.28760 233 ft 5 kts 59°
2026-05-03 22:48 53.36961 -2.28716 235 ft 0 kts 131°
2026-05-03 22:49 53.36951 -2.28700 233 ft 2 kts 135°
2026-05-03 22:49 53.36949 -2.28696 233 ft 0 kts 135°